Location: Mouss�
(47.9236°N, 1.2701°W)
Time: 02:29:00
(UTC+00:00)

Cosmos 1869 Rocket - Pass Details

Date: 03 March 2021
Orbit: 605 x 633 km, 82.5° (Epoch: 16 April)

Event Time Altitude Azimuth Distance (km) Brightness Sun altitude
Rises 19:50:29 0° 184° (S) 2,859 6.9 -20.4°
Reaches altitude 10° 19:52:41 10° 183° (S) 1,963 6.0 -20.7°
Maximum altitude 19:57:02 79° 98° (E) 632 3.4 -21.5°
Drops below altitude 10° 20:01:27 10° 12° (NNE) 1,997 6.2 -22.2°
Sets 20:03:42 0° 11° (N) 2,913 7.1 -22.5°
